| time (UTC) | temp F | wind direction | speed MPH | gust MPH | rain 1hr in | rain 24hr in | rain mn in | humidity % | barometer mb |
| 20260506215332 | 41 | 188 | 23.0 | 31.0 | 0.01 | 0.48 | 0.48 | 82 | 1010.4 |
| 20260506214328 | 41 | 185 | 23.0 | 35.0 | 0.00 | 0.47 | 0.47 | 80 | 1010.4 |
| 20260506205323 | 42 | 198 | 25.0 | 35.0 | 0.01 | 0.47 | 0.47 | 76 | 1010.2 |
| 20260506202318 | 42 | 170 | 18.0 | 33.0 | 0.01 | 0.47 | 0.47 | 79 | 1010.3 |
| 20260506201327 | 42 | 173 | 18.0 | 25.0 | 0.01 | 0.46 | 0.46 | 80 | 1010.4 |
| 20260506200328 | 41 | 178 | 7.0 | 19.0 | 0.01 | 0.47 | 0.46 | 81 | 1010.7 |
| 20260506195328 | 41 | 151 | 8.0 | 14.0 | 0.01 | 0.47 | 0.46 | 81 | 1010.5 |
| 20260506193321 | 41 | 93 | 5.0 | 10.0 | 0.01 | 0.47 | 0.46 | 81 | 1010.4 |
| 20260506191314 | 41 | 157 | 11.0 | 24.0 | 0.01 | 0.46 | 0.45 | 82 | 1009.8 |
| 20260506190327 | 41 | 200 | 21.0 | 28.0 | 0.01 | 0.46 | 0.45 | 82 | 1009.2 |
| 20260506184322 | 41 | 205 | 15.0 | 23.0 | 0.01 | 0.46 | 0.45 | 84 | 1009.3 |
| 20260506183315 | 41 | 147 | 14.0 | 22.0 | 0.01 | 0.46 | 0.45 | 83 | 1009.4 |
| 20260506181326 | 42 | 209 | 20.0 | 28.0 | 0.01 | 0.45 | 0.44 | 81 | 1008.6 |
| 20260506180323 | 42 | 196 | 21.0 | 35.0 | 0.01 | 0.45 | 0.44 | 80 | 1008.3 |
| 20260506175318 | 42 | 195 | 29.0 | 38.0 | 0.01 | 0.45 | 0.44 | 80 | 1007.9 |
| 20260506174313 | 43 | 214 | 26.0 | 35.0 | 0.01 | 0.45 | 0.44 | 79 | 1007.9 |
| 20260506173327 | 43 | 212 | 23.0 | 36.0 | 0.02 | 0.45 | 0.44 | 80 | 1007.8 |
| 20260506172320 | 43 | 196 | 24.0 | 40.0 | 0.01 | 0.44 | 0.43 | 79 | 1007.7 |
| 20260506171319 | 43 | 197 | 26.0 | 36.0 | 0.01 | 0.44 | 0.43 | 79 | 1007.4 |
| 20260506164324 | 44 | 207 | 19.0 | 33.0 | 0.02 | 0.44 | 0.43 | 80 | 1007.6 |
| 20260506163318 | 45 | 213 | 22.0 | 36.0 | 0.01 | 0.43 | 0.42 | 78 | 1007.5 |
| 20260506162317 | 45 | 189 | 23.0 | 34.0 | 0.01 | 0.43 | 0.42 | 79 | 1007.5 |
| 20260506161331 | 45 | 199 | 19.0 | 31.0 | 0.02 | 0.43 | 0.42 | 78 | 1007.6 |
| 20260506160325 | 46 | 169 | 20.0 | 33.0 | 0.02 | 0.43 | 0.42 | 75 | 1007.6 |
| 20260506155317 | 46 | 235 | 24.0 | 32.0 | 0.01 | 0.42 | 0.41 | 75 | 1007.4 |
| 20260506154331 | 47 | 198 | 18.0 | 29.0 | 0.02 | 0.42 | 0.41 | 73 | 1007.6 |
| 20260506153328 | 47 | 198 | 18.0 | 29.0 | 0.02 | 0.42 | 0.41 | 72 | 1007.8 |
| 20260506152320 | 48 | 220 | 18.0 | 29.0 | 0.02 | 0.42 | 0.41 | 73 | 1007.9 |
| 20260506151313 | 48 | 196 | 24.0 | 35.0 | 0.02 | 0.41 | 0.40 | 65 | 1007.5 |
| 20260506141315 | 48 | 224 | 13.0 | 22.0 | 0.02 | 0.40 | 0.38 | 74 | 1008.3 |
| 20260506140328 | 48 | 211 | 18.0 | 28.0 | 0.03 | 0.40 | 0.38 | 75 | 1008.0 |
| 20260506135322 | 48 | 196 | 16.0 | 25.0 | 0.02 | 0.39 | 0.37 | 73 | 1008.2 |
| 20260506134321 | 48 | 178 | 15.0 | 25.0 | 0.03 | 0.39 | 0.37 | 73 | 1008.4 |
| 20260506133315 | 48 | 227 | 13.0 | 28.0 | 0.04 | 0.39 | 0.37 | 74 | 1008.5 |
| 20260506131326 | 48 | 226 | 17.0 | 31.0 | 0.04 | 0.38 | 0.36 | 77 | 1008.5 |
| 20260506130319 | 49 | 211 | 12.0 | 28.0 | 0.03 | 0.37 | 0.35 | 78 | 1008.7 |
| 20260506121318 | 48 | 211 | 20.0 | 29.0 | 0.03 | 0.34 | 0.32 | 76 | 1008.1 |
| 20260506120312 | 48 | 212 | 18.0 | 33.0 | 0.04 | 0.35 | 0.32 | 80 | 1008.4 |
| 20260506114324 | 47 | 183 | 23.0 | 36.0 | 0.04 | 0.34 | 0.31 | 82 | 1008.2 |
| 20260506113317 | 47 | 182 | 16.0 | 27.0 | 0.03 | 0.33 | 0.30 | 83 | 1008.2 |
| 20260506112331 | 47 | 195 | 19.0 | 27.0 | 0.04 | 0.33 | 0.30 | 84 | 1008.2 |
| 20260506110319 | 47 | 186 | 14.0 | 25.0 | 0.02 | 0.35 | 0.28 | 85 | 1008.5 |
| 20260506104332 | 46 | 200 | 14.0 | 34.0 | 0.02 | 0.34 | 0.27 | 86 | 1008.6 |
| 20260506103326 | 47 | 223 | 14.0 | 27.0 | 0.03 | 0.34 | 0.27 | 88 | 1008.2 |
| 20260506102318 | 46 | 196 | 20.0 | 34.0 | 0.02 | 0.33 | 0.26 | 89 | 1008.2 |
| 20260506094326 | 45 | 214 | 13.0 | 20.0 | 0.03 | 0.32 | 0.25 | 90 | 1008.4 |
| 20260506091332 | 46 | 194 | 10.0 | 18.0 | 0.03 | 0.31 | 0.24 | 90 | 1008.5 |
| 20260506073321 | 44 | 190 | 12.0 | 25.0 | 0.03 | 0.43 | 0.19 | 90 | 1008.0 |
| 20260506072315 | 44 | 11 | 3.0 | 14.0 | 0.03 | 0.43 | 0.19 | 90 | 1007.9 |
| 20260506071328 | 44 | 37 | 1.0 | 4.0 | 0.03 | 0.42 | 0.18 | 90 | 1008.0 |
| 20260506062327 | 44 | 96 | 1.0 | 7.0 | 0.03 | 0.55 | 0.16 | 90 | 1008.4 |
| 20260506061321 | 44 | 57 | 3.0 | 6.0 | 0.03 | 0.54 | 0.15 | 90 | 1008.5 |
| 20260506060319 | 43 | 71 | 1.0 | 3.0 | 0.03 | 0.63 | 0.15 | 90 | 1008.6 |
| 20260506051315 | 43 | 16 | 5.0 | 9.0 | 0.03 | 0.60 | 0.12 | 89 | 1009.4 |
| 20260506050312 | 43 | 92 | 3.0 | 10.0 | 0.03 | 0.72 | 0.12 | 89 | 1009.3 |
| 20260506041313 | 41 | 67 | 3.0 | 5.0 | 0.04 | 0.69 | 0.09 | 89 | 1009.6 |
| 20260506034320 | 40 | 62 | 2.0 | 5.0 | 0.03 | 0.73 | 0.07 | 89 | 1009.5 |
| 20260506033314 | 40 | 157 | 0.0 | 5.0 | 0.04 | 0.73 | 0.07 | 88 | 1009.9 |
| 20260506030323 | 41 | 66 | 4.0 | 7.0 | 0.04 | 0.74 | 0.05 | 88 | 1010.3 |
| 20260506025313 | 41 | 81 | 1.0 | 4.0 | 0.03 | 0.73 | 0.04 | 89 | 1010.6 |
| 20260506023321 | 41 | 34 | 3.0 | 5.0 | 0.03 | 0.72 | 0.03 | 89 | 1010.5 |
| 20260506022317 | 41 | 16 | 4.0 | 4.0 | 0.03 | 0.72 | 0.03 | 89 | 1010.7 |
| 20260506012314 | 43 | 144 | 0.0 | 2.0 | 0.00 | 0.69 | 0.00 | 89 | 1011.0 |
| 20260506010327 | 43 | 174 | 5.0 | 7.0 | 0.00 | 0.69 | 0.00 | 89 | 1011.3 |
| 20260506004316 | 43 | 182 | 3.0 | 8.0 | 0.00 | 0.69 | 0.00 | 89 | 1011.2 |
| 20260506003327 | 43 | 188 | 7.0 | 11.0 | 0.00 | 0.69 | 0.00 | 89 | 1011.3 |
| 20260506002322 | 43 | 177 | 10.0 | 15.0 | 0.00 | 0.69 | 0.00 | 89 | 1011.3 |
| 20260506001321 | 43 | 210 | 12.0 | 16.0 | 0.00 | 0.69 | 0.00 | 90 | 1011.0 |
| 20260505235328 | 43 | 182 | 8.0 | 13.0 | 0.00 | 0.69 | 0.00 | 89 | 1011.7 |
| 20260505234322 | 42 | 207 | 8.0 | 11.0 | 0.00 | 0.69 | 0.00 | 89 | 1011.8 |
| 20260505232313 | 42 | 200 | 10.0 | 13.0 | 0.00 | 0.69 | 0.00 | 90 | 1011.8 |
| 20260505231327 | 42 | 196 | 8.0 | 12.0 | 0.00 | 0.69 | 0.00 | 90 | 1012.0 |
| 20260505225315 | 42 | 208 | 9.0 | 11.0 | 0.00 | 0.69 | 0.00 | 90 | 1011.9 |
| 20260505224331 | 42 | 186 | 10.0 | 15.0 | 0.00 | 0.69 | 0.00 | 90 | 1012.0 |
| 20260505223331 | 42 | 186 | 8.0 | 11.0 | 0.00 | 0.69 | 0.00 | 90 | 1012.2 |